Location: Wien
(48.2082°N, 16.3738°E)
Time: 10:27:27
(UTC+02:00)

Transit 4A - Pass Details

Date: 29 February 2024
Orbit: 871 x 971 km, 66.8° (Epoch: 24 April)

Event Time Altitude Azimuth Distance (km) Brightness Sun altitude
Exits shadow 02:09:15 19° 13° (NNE) 2,011 10.0 -42.1°
Drops below altitude 10° 02:11:07 10° 25° (NNE) 2,580 10.8 -41.9°
Sets 02:13:50 0° 34° (NE) 3,509 11.7 -41.6°
